Regional Weather Roundup
Issued by NWS

Home | Current Version | Previous Version | Graphics & Text | Print | Product List | Glossary On
Versions: 1 2 3 4 5 6 7 8 9 10 11 12 13 14 15 16 17 18 19 20 21 22 23 24 25 26 27 28 29 30 31 32 33 34 35 36 37 38 39 40 41 42 43 44 45 46 47 48 49 50
000
ASUS43 KDMX 231606
RWRIA

WEATHER ROUNDUP FOR IOWA
NATIONAL WEATHER SERVICE DES MOINES IA
1100 AM CDT SAT SEP 23 2017

NOTE: "FAIR" INDICATES FEW OR NO CLOUDS BELOW 12,000 FEET WITH NO
SIGNIFICANT WEATHER AND/OR OBSTRUCTIONS TO VISIBILITY.

* - THESE STATIONS ARE NOT NWS STATIONS...THUS NOT UNDER NWS
QUALITY CONTROL.  THEY ALSO DO NOT REPORT WEATHER SUCH
AS PRECIPITATION OR FOG.

IAZ001>003-012>014-020>022-031>034-043>046-231700-
   NORTHWEST IOWA

CITY           SKY/WX    TMP DP  RH WIND       PRES   REMARKS
CARROLL *      SUNNY     84  68  58 S12G18    30.00S HX  87
CHEROKEE *     SUNNY     80  71  74 S10       29.97S HX  83
DENISON *      MOSUNNY   81  68  65 S12       30.00S HX  83
LE MARS *      SUNNY     77  68  73 S13       29.95F
ORANGE CITY *  MOSUNNY   77  70  78 S10       29.96F
SHELDON *      MOSUNNY   77  68  73 VRB7      29.96S
SIOUX CITY     SUNNY     73  66  78 SE6       29.95F
SPENCER        MOSUNNY   80  69  69 S8        29.99R HX  83
STORM LAKE *   SUNNY     82  68  61 SW15      29.99S HX  85
$$

IAZ055>058-069>071-079>083-090>094-231700-
   SOUTHWEST IOWA

CITY           SKY/WX    TMP DP  RH WIND       PRES   REMARKS
ATLANTIC *     SUNNY     84  66  54 S16       30.00F HX  86
AUDUBON *      SUNNY     82  70  65 S10       30.02S HX  86
CLARINDA *     SUNNY     84  68  58 S13G20    30.03F HX  87
COUNCIL BLFS * SUNNY     82  70  65 S14       29.98S HX  86
CRESTON *      SUNNY     84  68  58 S13       30.06S HX  87
HARLAN  *      MOSUNNY   82  68  61 S15       30.02F HX  85
LAMONI         SUNNY     83  70  64 S9        30.06R HX  87
RED OAK *      SUNNY     84  68  58 S13       30.00F HX  87
SHENANDOAH *   PTSUNNY   84  66  54 S14       30.00F HX  86
$$

IAZ047>049-059>061-072>074-084-231700-
   CENTRAL IOWA

CITY           SKY/WX    TMP DP  RH WIND       PRES   REMARKS
AMES           SUNNY     85  69  58 S13       30.03S HX  89
ANKENY *       SUNNY     84  70  61 S8        30.05S HX  88
BOONE *        SUNNY     84  68  58 S9        30.03S HX  87
CHARITON *     SUNNY     84  70  61 S10       30.05F HX  88
DES MOINES     MOSUNNY   84  69  60 S8        30.03S HX  88
GRINNELL*      SUNNY     83  67  57 SW6       30.07S HX  86
KNOXVILLE *    SUNNY     86  68  54 S8        30.04S HX  89
MARSHALLTOWN   SUNNY     85  68  56 SW9       30.04S HX  88
NEWTON *       SUNNY     86  68  54 S8        30.05S HX  89
PELLA *        SUNNY     87  66  49 SW3       30.06S HX  89
PERRY *          N/A     86  68  54 S9        30.02F HX  89
$$

IAZ004>006-015-016-023>025-035-036-231700-
   NORTH CENTRAL IOWA

CITY           SKY/WX    TMP DP  RH WIND       PRES   REMARKS
ALGONA *       PTSUNNY   82  70  65 S10       30.01R HX  86
CLARION *      MOSUNNY   84  70  61 S12G17    30.02S HX  88
ESTHERVILLE    SUNNY     78  70  76 S12       29.99R HX  80
FORT DODGE *   PTSUNNY   82  70  66 S10       30.02S HX  86
MASON CITY     MOSUNNY   83  68  60 S14       30.04S HX  86
FOREST CITY *  PTSUNNY   82  68  61 S14       30.02S HX  85
WEBSTER CITY * SUNNY     84  68  58 S13       30.00S HX  87
IOWA FALLS *     N/A     85  68  56 S14       30.05S HX  88
$$

IAZ007>011-017>019-026>030-037>042-050>054-066-231700-
   NORTHEAST IOWA

CITY           SKY/WX    TMP DP  RH WIND       PRES   REMARKS
CEDAR RAPIDS   SUNNY     86  66  51 VRB5      30.06S HX  88
CHARLES CITY * SUNNY     84  68  58 S14       30.04S HX  87
CLINTON *      SUNNY    N/A N/A N/A S6        30.09S
DECORAH *      SUNNY     82  68  61 S8        30.05F HX  85
DUBUQUE        SUNNY     81  66  60 S7        30.10R HX  83
MONTICELLO *   SUNNY     86  66  51 SW5       30.07S HX  88
OELWEIN *      SUNNY     86  68  54 SW10G20   30.07S HX  89
WATERLOO       SUNNY     86  65  49 S14       30.03F HX  88
$$

IAZ064-065-067-068-078-231700-
   EAST CENTRAL IOWA

CITY           SKY/WX    TMP DP  RH WIND       PRES   REMARKS
DAVENPORT      SUNNY     85  66  53 S6        30.10S HX  87
IOWA CITY      SUNNY     86  67  52 S6        30.08S HX  89
MT. PLEASANT * SUNNY     87  65  48 S6        30.07S HX  89
MUSCATINE *    SUNNY     82  68  61 VRB6      30.07F HX  85
QUAD CITIES    SUNNY     87  66  49 SW6       30.07S HX  89
$$

IAZ062-063-075>077-085>089-095>099-231700-
   SOUTHEAST IOWA

CITY           SKY/WX    TMP DP  RH WIND       PRES   REMARKS
BURLINGTON     SUNNY     87  68  52 VRB5      30.07S HX  90
FAIRFIELD *    SUNNY     86  66  51 VRB3      30.06S HX  88
FORT MADISON * SUNNY     90  66  45 CALM      30.08S HX  92
KEOKUK *       SUNNY     88  66  48 VRB5      30.07S HX  90
OSKALOOSA *      N/A     87  65  48 W5        30.06S HX  89
OTTUMWA        SUNNY     85  69  58 S5        30.06S HX  89
WASHINGTON *   SUNNY     86  68  54 SW7       30.08S HX  89
$$

ABBREVIATIONS USED IN REMARKS
   TC - TEMPERATURES IN CELSIUS
  WCI - WIND CHILL INDEX
   HX - HEAT INDEX
  VSB - VISIBILITY
$$





USA.gov is the U.S. government's official web portal to all federal, state and local government web resources and services.